Simultaneous Nadir Overpasses (SNOs) Predictions

Prediction of SNOs between METOP-B and TERRA Satellite Orbit:

Table of predicted SNOs for the next 14.0 days since TLE Epoch: 3/6/2020
Index Date (METOP-B) Time (METOP-B) Lat,Lon (METOP-B) SZA (METOP-B ) Date (TERRA) Time (TERRA) Lat,Lon (TERRA) SZA (TERRA ) Distance(km) Time Diff (sec)
1 03/06/2020 23:22:10 -81.30, 56.82 91.06 03/06/2020 23:22:31 -81.30, 56.80 91.06 0.44 21
2 03/07/2020 00:12:50 81.31,-135.61 88.96 03/07/2020 00:11:57 81.31,-135.43 88.96 3.09 53
3 03/09/2020 18:56:33 -81.30, 123.33 92.12 03/09/2020 18:56:45 -81.31, 123.38 92.11 1.04 12
4 03/09/2020 19:47:12 81.31, -68.72 87.94 03/09/2020 19:46:11 81.31, -68.88 87.90 2.79 61
5 03/12/2020 14:30:56 -81.31,-170.18 93.19 03/12/2020 14:30:59 -81.31,-170.07 93.17 2.12 3
6 03/12/2020 15:21:35 81.31, -2.23 86.87 03/12/2020 15:20:25 81.32, -2.37 86.83 2.44 70
7 03/15/2020 09:14:38 81.30, 88.57 85.70 03/15/2020 09:15:46 81.30, 88.43 85.72 2.33 68
8 03/15/2020 10:05:19 -81.30,-104.09 94.31 03/15/2020 10:05:13 -81.30,-103.93 94.30 2.73 6
9 03/18/2020 04:49:01 81.30, 155.04 84.63 03/18/2020 04:50:00 81.30, 154.88 84.63 2.64 59




NCC Satellite Simultaneous Nadir Overpasses (SNOs) Prediction Service
